When you browse on this site, cookies collect data to enhance your experience and personalize the content and advertising you see.
Visit our Privacy Policy to learn more. By continuing to use the site, you agree to this use of cookies and data.
  • In Österreich
  • Länderverzeichnis
  • Für 7 Tage
  • Wassertemperatur
  • Satellitenkarten
  • Wetterkarte
  • News
  • Widgets
  • user-avatar
    Anmelden

    Stündliche Wetter Chyhyryn

    Heute, 21 Januar, Montag

    Zeit Temperatur Niederschläge Wind Luftdruck Luftfeuchtigkeit
    00:00 +1°C° 1.6 mm 2 m/S 752 mmHg 98%
    01:00 +3°C° 1.6 mm 1 m/S 751 mmHg 99%
    02:00 +2°C° 0 mm 0 m/S 750 mmHg 99%
    03:00 +2°C° 1.2 mm 1 m/S 750 mmHg 98%
    04:00 +1°C° 1.2 mm 2 m/S 750 mmHg 98%
    05:00 0°C° 1.2 mm 3 m/S 750 mmHg 98%
    06:00 -2°C° 0.2 mm 4 m/S 750 mmHg 96%
    07:00 -4°C° 0.2 mm 5 m/S 751 mmHg 94%
    08:00 -6°C° 0 mm 7 m/S 751 mmHg 92%
    09:00 -6°C° 0.1 mm 7 m/S 752 mmHg 91%
    10:00 -6°C° 0.1 mm 7 m/S 753 mmHg 90%
    11:00 -6°C° 0.1 mm 7 m/S 753 mmHg 89%
    12:00 -6°C° 0 mm 7 m/S 754 mmHg 89%
    13:00 -5°C° 0 mm 6 m/S 754 mmHg 88%
    14:00 -5°C° 0 mm 6 m/S 755 mmHg 87%
    15:00 -6°C° 0 mm 6 m/S 755 mmHg 88%
    16:00 -7°C° 0 mm 5 m/S 756 mmHg 89%
    17:00 -7°C° 0 mm 4 m/S 756 mmHg 90%
    18:00 -8°C° 0 mm 4 m/S 757 mmHg 90%
    19:00 -8°C° 0 mm 4 m/S 757 mmHg 90%
    20:00 -8°C° 0 mm 4 m/S 757 mmHg 90%
    21:00 -9°C° 0 mm 4 m/S 758 mmHg 91%
    22:00 -9°C° 0 mm 3 m/S 758 mmHg 91%
    23:00 -9°C° 0 mm 3 m/S 758 mmHg 92%

    Morgen, 22 Januar, Dienstag

    Zeit Temperatur Niederschläge Wind Luftdruck Luftfeuchtigkeit
    00:00 -9°C° 0 mm 2 m/S 758 mmHg 92%
    01:00 -9°C° 0 mm 2 m/S 758 mmHg 91%
    02:00 -10°C° 0 mm 2 m/S 758 mmHg 91%
    03:00 -10°C° 0 mm 2 m/S 758 mmHg 91%
    04:00 -12°C° 0 mm 2 m/S 758 mmHg 90%
    05:00 -12°C° 0 mm 2 m/S 758 mmHg 90%
    06:00 -12°C° 0 mm 2 m/S 758 mmHg 90%
    07:00 -12°C° 0 mm 2 m/S 758 mmHg 89%
    08:00 -12°C° 0 mm 2 m/S 758 mmHg 88%
    09:00 -10°C° 0 mm 2 m/S 758 mmHg 85%
    10:00 -9°C° 0 mm 2 m/S 758 mmHg 82%
    11:00 -8°C° 0 mm 2 m/S 758 mmHg 79%
    12:00 -7°C° 0 mm 2 m/S 758 mmHg 78%
    13:00 -6°C° 0 mm 2 m/S 757 mmHg 77%
    14:00 -5°C° 0 mm 2 m/S 757 mmHg 76%
    15:00 -5°C° 0 mm 2 m/S 756 mmHg 78%
    16:00 -6°C° 0 mm 3 m/S 756 mmHg 79%
    17:00 -6°C° 0 mm 3 m/S 756 mmHg 81%
    18:00 -6°C° 0 mm 3 m/S 755 mmHg 81%
    19:00 -6°C° 0 mm 3 m/S 755 mmHg 81%
    20:00 -7°C° 0 mm 4 m/S 755 mmHg 80%
    21:00 -7°C° 0.1 mm 4 m/S 754 mmHg 82%
    22:00 -7°C° 0.1 mm 4 m/S 754 mmHg 84%
    23:00 -6°C° 0.1 mm 5 m/S 753 mmHg 86%

    übermorgen, 23 Januar, Mittwoch

    Zeit Temperatur Niederschläge Wind Luftdruck Luftfeuchtigkeit
    00:00 -6°C° 0.4 mm 5 m/S 753 mmHg 89%
    01:00 -6°C° 0.4 mm 5 m/S 752 mmHg 92%
    02:00 -6°C° 0.4 mm 6 m/S 752 mmHg 95%
    03:00 -6°C° 0.7 mm 6 m/S 751 mmHg 95%
    04:00 -5°C° 0.7 mm 6 m/S 750 mmHg 95%
    05:00 -6°C° 0.7 mm 7 m/S 750 mmHg 95%
    06:00 -4°C° 0.7 mm 7 m/S 749 mmHg 95%
    07:00 -4°C° 0.7 mm 7 m/S 749 mmHg 95%
    08:00 -3°C° 0.7 mm 7 m/S 749 mmHg 95%
    09:00 -3°C° 0.2 mm 7 m/S 748 mmHg 95%
    10:00 -2°C° 0.2 mm 8 m/S 747 mmHg 96%
    11:00 -2°C° 0.2 mm 8 m/S 747 mmHg 96%
    12:00 -1°C° 0.2 mm 8 m/S 746 mmHg 97%
    13:00 -1°C° 0.2 mm 8 m/S 745 mmHg 98%
    14:00 -1°C° 0.2 mm 7 m/S 744 mmHg 99%
    15:00 0°C° 0.5 mm 7 m/S 744 mmHg 99%
    16:00 +1°C° 0.5 mm 6 m/S 744 mmHg 99%
    17:00 +1°C° 0.5 mm 5 m/S 743 mmHg 99%
    18:00 +1°C° 0 mm 5 m/S 743 mmHg 99%
    19:00 +1°C° 0 mm 4 m/S 743 mmHg 99%
    20:00 +1°C° 0 mm 4 m/S 744 mmHg 99%
    21:00 +1°C° 0 mm 3 m/S 744 mmHg 99%
    22:00 +1°C° 0 mm 3 m/S 744 mmHg 99%
    23:00 0°C° 0 mm 3 m/S 745 mmHg 98%

    24 Januar, Donnerstag

    Zeit Temperatur Niederschläge Wind Luftdruck Luftfeuchtigkeit
    00:00 0°C° 0 mm 3 m/S 745 mmHg 98%
    01:00 0°C° 0 mm 3 m/S 745 mmHg 97%
    02:00 +1°C° 0 mm 2 m/S 746 mmHg 96%
    03:00 -1°C° 0 mm 2 m/S 746 mmHg 95%
    04:00 -1°C° 0 mm 2 m/S 746 mmHg 95%
    05:00 -2°C° 0 mm 2 m/S 746 mmHg 94%
    06:00 -2°C° 0 mm 2 m/S 747 mmHg 94%
    07:00 -2°C° 0 mm 2 m/S 747 mmHg 94%
    08:00 -4°C° 0 mm 3 m/S 747 mmHg 94%
    09:00 -2°C° 0 mm 3 m/S 748 mmHg 94%
    10:00 -2°C° 0 mm 3 m/S 748 mmHg 93%
    11:00 -3°C° 0 mm 4 m/S 748 mmHg 93%
    12:00 -3°C° 0 mm 4 m/S 748 mmHg 93%
    13:00 -3°C° 0 mm 4 m/S 748 mmHg 93%
    14:00 -4°C° 0 mm 5 m/S 748 mmHg 92%
    15:00 -4°C° 0.1 mm 5 m/S 748 mmHg 92%
    16:00 -4°C° 0.1 mm 5 m/S 748 mmHg 92%
    17:00 -5°C° 0.1 mm 5 m/S 748 mmHg 92%
    18:00 -5°C° 0 mm 5 m/S 749 mmHg 92%
    19:00 -5°C° 0 mm 5 m/S 749 mmHg 92%
    20:00 -6°C° 0 mm 5 m/S 749 mmHg 92%
    21:00 -6°C° 0.1 mm 5 m/S 750 mmHg 92%
    22:00 -7°C° 0.1 mm 5 m/S 750 mmHg 92%
    23:00 -8°C° 0.1 mm 6 m/S 750 mmHg 92%

    25 Januar, Freitag

    Zeit Temperatur Niederschläge Wind Luftdruck Luftfeuchtigkeit
    00:00 -8°C° 0 mm 5 m/S 750 mmHg 91%
    01:00 -8°C° 0 mm 5 m/S 750 mmHg 91%
    02:00 -8°C° 0 mm 5 m/S 750 mmHg 91%
    03:00 -10°C° 0 mm 6 m/S 750 mmHg 91%
    04:00 -10°C° 0 mm 6 m/S 749 mmHg 91%
    05:00 -11°C° 0 mm 6 m/S 749 mmHg 90%
    06:00 -11°C° 0 mm 6 m/S 750 mmHg 91%
    07:00 -11°C° 0 mm 5 m/S 750 mmHg 91%
    08:00 -12°C° 0 mm 5 m/S 750 mmHg 91%
    09:00 -11°C° 0 mm 5 m/S 750 mmHg 90%
    10:00 -11°C° 0 mm 5 m/S 751 mmHg 90%
    11:00 -10°C° 0 mm 5 m/S 751 mmHg 89%
    12:00 -10°C° 0 mm 5 m/S 751 mmHg 89%
    13:00 -8°C° 0 mm 5 m/S 750 mmHg 88%
    14:00 -8°C° 0 mm 5 m/S 750 mmHg 88%
    15:00 -8°C° 0 mm 4 m/S 750 mmHg 89%
    16:00 -9°C° 0 mm 4 m/S 750 mmHg 90%
    17:00 -9°C° 0 mm 4 m/S 750 mmHg 91%
    18:00 -9°C° 0 mm 4 m/S 751 mmHg 91%
    19:00 -9°C° 0 mm 4 m/S 751 mmHg 90%
    20:00 -9°C° 0 mm 4 m/S 751 mmHg 89%
    21:00 -10°C° 0 mm 4 m/S 751 mmHg 90%
    22:00 -10°C° 0 mm 4 m/S 751 mmHg 90%
    23:00 -10°C° 0 mm 4 m/S 751 mmHg 91%

    26 Januar, Samstag

    Zeit Temperatur Niederschläge Wind Luftdruck Luftfeuchtigkeit
    00:00 -10°C° 0 mm 4 m/S 751 mmHg 91%
    01:00 -10°C° 0 mm 4 m/S 751 mmHg 91%
    02:00 -10°C° 0 mm 4 m/S 750 mmHg 91%
    03:00 -10°C° 0 mm 4 m/S 750 mmHg 91%
    04:00 -10°C° 0 mm 4 m/S 750 mmHg 92%
    05:00 -10°C° 0 mm 4 m/S 750 mmHg 92%
    06:00 -10°C° 0 mm 4 m/S 750 mmHg 92%
    07:00 -10°C° 0 mm 4 m/S 750 mmHg 91%
    08:00 -10°C° 0 mm 4 m/S 750 mmHg 91%
    09:00 -10°C° 0 mm 4 m/S 750 mmHg 90%
    10:00 -9°C° 0 mm 4 m/S 750 mmHg 89%
    11:00 -9°C° 0 mm 4 m/S 750 mmHg 88%
    12:00 -9°C° 0 mm 4 m/S 750 mmHg 89%
    13:00 -8°C° 0 mm 4 m/S 750 mmHg 89%
    14:00 -8°C° 0 mm 4 m/S 749 mmHg 89%
    15:00 -9°C° 0 mm 4 m/S 750 mmHg 89%
    16:00 -9°C° 0 mm 4 m/S 750 mmHg 90%
    17:00 -9°C° 0 mm 4 m/S 750 mmHg 91%
    18:00 -10°C° 0 mm 4 m/S 750 mmHg 91%
    19:00 -10°C° 0 mm 4 m/S 750 mmHg 91%
    20:00 -11°C° 0 mm 4 m/S 750 mmHg 91%
    21:00 -11°C° 0 mm 4 m/S 750 mmHg 91%
    22:00 -11°C° 0 mm 4 m/S 750 mmHg 91%
    23:00 -12°C° 0 mm 4 m/S 750 mmHg 91%
    Mehr zeigen